Hamilton Rbg, Ontario

11:36 PM EST on February 21, 2017 (GMT -0500)
Hamilton

Weather History for CXHM - May, 2013

Change the Weather History Date:

Wednesday, May 15, 2013

  Actual Average Record
Temperature  
Mean Temperature 62 °F -  
Max Temperature 79 °F - - ()
Min Temperature 45 °F - - ()
Degree Days  
Heating Degree Days 3    
Growing Degree Days 12 (Base 50)    
Moisture  
Dew Point 45 °F    
Average Humidity 60    
Maximum Humidity 90    
Minimum Humidity 26    
Precipitation  
Precipitation 0.00 in - - ()
Sea Level Pressure  
Sea Level Pressure 29.68 in    
Wind  
Wind Speed 4 mph ()    
Max Wind Speed 15 mph    
Max Gust Speed 25 mph    
T = Trace of Precipitation, MM = Missing Value Source: Averaged Metar Reports

Daily Weather History Graph

Daily Weather History Graph

Search for Another Location

Airport or City:

Trip Planner

Search our weather history database for the weather conditions in past years. The results will help you decide how hot, cold, wet, or windy it might be!

Date:

Astronomy

May. 15, 2013 Rise Set
Actual Time 5:55 AM EDT 8:37 PM EDT
Civil Twilight 5:22 AM EDT 9:10 PM EDT
Nautical Twilight 4:41 AM EDT 9:51 PM EDT
Astronomical Twilight 3:53 AM EDT 10:39 PM EDT
Moon 10:30 AM EDT (5/15) 12:21 AM EDT (5/15)
Length of Visible Light 15h 47m
Length of Day
14h 41m
Waxing Crescent, 26% of the Moon is Illuminated
May 15
Waxing Crescent
May 18
First Quarter
May 25
Full
May 31
Last Quarter
Jun 8
New

Hourly Weather History & Observations

Time (EDT) Temp. Windchill Dew Point Humidity Pressure Visibility Wind Dir Wind Speed Gust Speed Precip Events Conditions
12:00 AM 48.6 °F - 39.2 °F 70% 29.88 in - NE 3.5 mph - N/A   Unknown
1:00 AM 47.1 °F - 39.4 °F 74% 29.85 in - ENE 1.2 mph - N/A   Unknown
2:00 AM 46 °F - 41 °F 78% 29.84 in - NE 2.3 mph - -  
2:00 AM 46.2 °F - 41.4 °F 83% 29.84 in - NE 2.3 mph - N/A   Unknown
3:00 AM 47.1 °F - 42.1 °F 83% 29.80 in - East 3.5 mph - N/A   Unknown
4:00 AM 47.3 °F - 41.7 °F 81% 29.76 in - East 4.6 mph - N/A   Unknown
5:00 AM 46.6 °F - 41.4 °F 82% 29.76 in - ESE 1.2 mph - N/A   Unknown
6:00 AM 46.0 °F 44.8 °F 42.1 °F 86% 29.70 in - East 3.5 mph - N/A   Unknown
7:00 AM 46.0 °F - 43.3 °F 90% 29.67 in - South 2.3 mph - N/A   Unknown
8:00 AM 48 °F - 45 °F 85% 29.65 in - East 2.3 mph - -  
8:00 AM 48.4 °F - 45.0 °F 88% 29.65 in - East 2.3 mph - N/A   Unknown
9:00 AM 51.3 °F - 45.3 °F 80% 29.61 in - ESE 4.6 mph - N/A   Unknown
10:00 AM 56.8 °F - 47.7 °F 71% 29.57 in - East 1.2 mph - N/A   Unknown
11:00 AM 61.3 °F - 49.8 °F 66% 29.53 in - SSE 2.3 mph - N/A   Unknown
12:00 PM 75.4 °F - 58.1 °F 55% 29.50 in - West 11.5 mph 20.7 mph N/A   Unknown
1:00 PM 78.4 °F - 53.2 °F 42% 29.51 in - West 13.8 mph 25.3 mph N/A   Unknown
2:00 PM 75 °F - 49 °F 29% 29.57 in - WNW 15.0 mph - -  
2:00 PM 75.4 °F - 49.1 °F 39% 29.57 in - WNW 15.0 mph 25.3 mph N/A   Unknown
3:00 PM 73.0 °F - 49.5 °F 43% 29.61 in - WNW 15.0 mph 25.3 mph N/A   Unknown
4:00 PM 75.4 °F - 48.7 °F 39% 29.63 in - WNW 15.0 mph 23.0 mph N/A   Unknown
5:00 PM 74.5 °F - 47.5 °F 38% 29.65 in - WNW 12.7 mph 24.2 mph N/A   Unknown
6:00 PM 73.2 °F - 43.5 °F 34% 29.67 in - WNW 10.4 mph 17.3 mph N/A   Unknown
7:00 PM 72.3 °F - 38.8 °F 30% 29.68 in - NW 9.2 mph - N/A   Unknown
8:00 PM 70 °F - 43 °F 26% 29.69 in - WNW 3.5 mph - -  
8:00 PM 70.2 °F - 42.8 °F 37% 29.69 in - WNW 3.5 mph - N/A   Unknown
9:00 PM 67.1 °F - 43.5 °F 42% 29.70 in - West 3.5 mph - N/A   Unknown
10:00 PM 65.3 °F - 45.3 °F 48% 29.72 in - West 2.3 mph - N/A   Unknown
11:00 PM 63.0 °F - 46.0 °F 54% 29.70 in - West 2.3 mph - N/A   Unknown